Погода в Крайльсхайм

Германия     49°08′14″N   10°04′16″E
темп.,
°C
ветер,
м/с
пор.,
м/с
влажн.,
%
обл.,
%
осадки,
мм/ч
давл.,
гПа
погр.,
м
1 августа, вс
вс123:00+14з1183100 0.0 101111
02:00+14сз2276100 0.0 101018
05:00+13з2385100 0.4 101050
08:00+13зюз3596100 2.3 1010202
11:00+15з4691100 1.4 1011276
14:00+17з4576100 2.1 1011882
17:00+18з4673100 0.2 1010990
20:00+15зюз51282100 0.7 1011374
2 августа, пн
пн223:00+13зюз51289100 0.1 1013329
02:00+11юз410969 0.1 1014242
05:00+11зюз410978 0.0 1014239
08:00+13з599313 0.0 1015359
11:00+16з5777100 0.3 1015754
14:00+18з576991 0.9 10151224
17:00+19з57665 0.6 10151184
20:00+16з22815 1.5 101537
3 августа, вт
вт323:00+13ююз22885 0.0 101613
02:00+12ююз22905 0.0 101623
05:00+11ююз229127 0.0 101626
08:00+14ю2588100 0.0 1016138
11:00+18ююз4672100 0.0 1015565
14:00+17з6877100 1.6 1015955
17:00+15ю129064 1.8 101499
20:00+15юз2488100 1.9 101498
4 августа, ср
ср423:00+13юз3491100 0.1 101575
02:00+13ююз3795100 0.1 1015181
05:00+13юз3692100 0.1 1014159
08:00+13ююз2395100 0.9 101583
11:00+12юв2397100 1.7 1015167
14:00+13юз2394100 2.1 1015216
17:00+14зюз2595100 0.1 1015354
20:00+13зюз3695100 0.1 1016305
5 августа, чт
чт523:00+12юз3797100 0.0 1016230
02:00+11зюз229665 0.0 101639
05:00+10ююз229618 0.0 101517
08:00+12юз249491 0.0 1015199
11:00+16зюз3481100 0.1 1014756
14:00+16з4575100 0.1 1013666
17:00+16з3482100 0.0 1012533
20:00+15з25914 0.0 1012169